User: anonymous   Login
Location: Unspecified
(0.0000°N, 0.0000°E)
Time: 12:44:52
(UTC+00:00)
Language:

DEMETER - Orbit

View from above orbital plane
View from above orbital plane
View from above satellite
View from above satellite

Ground track
Ground track

The orbit data is extracted from the following two-line orbital elements,

1 28368U 04025C   18201.05208844  .00000094  00000-0  21273-4 0  9993
2 28368  97.7444 186.9350 0002351  76.6485 283.4987 14.74381141754240
Epoch (UTC): 20 July 2018 01:15:00
Eccentricity: 0.0002351
inclination: 97.7444°
perigee height: 645 km
apogee height: 649 km
right ascension of ascending node: 186.9350°
argument of perigee: 76.6485°
revolutions per day: 14.74381141
mean anomaly at epoch: 283.4987°
orbit number at epoch: 75424

The dashed part of the orbit path shows where the satellite is in the earth's shadow,  

DLR